Deptford, New Jersey, United States
Lat: 39.83N, Lon: 75.13W
Wx Zone: NJZ017
Local Info
Past Weather Observations for Saturday, July 26, 2014

NOTE: This archive is for the closest National Weather Service station to Deptford. Information may differ from the station used for current weather conditions.

Click here for Long-term Archive

Time Weather Temperature Dewpoint Humidity Pressure Winds Precip Visibility
23:54
Partly Cloudy
73°F / 23°C 68°F / 20°C 83% 29.89 in
(1012 mb)
S 5.8 mph
(S 9 kph)
- 10SM
22:54
Mostly Cloudy
73°F / 23°C 70°F / 21°C 89% 29.92 in
(1013 mb)
SSE 6.9 mph
(SSE 11 kph)
- 10SM
21:54
Partly Cloudy
75°F / 24°C 70°F / 21°C 83% 29.92 in
(1013 mb)
SSE 8.1 mph
(SSE 13 kph)
- 10SM
20:54
Partly Cloudy
75°F / 24°C 70°F / 21°C 83% 29.92 in
(1013 mb)
S 8.1 mph
(S 13 kph)
- 10SM
19:54
Partly Cloudy
77°F / 25°C 68°F / 20°C 74% 29.92 in
(1013 mb)
S 6.9 mph
(S 11 kph)
- 10SM
18:54
Partly Cloudy
79°F / 26°C 66°F / 19°C 65% 29.92 in
(1013 mb)
S 9.2 mph
(S 15 kph)
- 10SM
17:54
Partly Cloudy
81°F / 27°C 66°F / 19°C 62% 29.92 in
(1013 mb)
SSE 9.2 mph
(SSE 15 kph)
- 10SM
16:54
Mostly Cloudy
79°F / 26°C 70°F / 21°C 74% 29.92 in
(1013 mb)
SSE 6.9 mph
(SSE 11 kph)
- 10SM
15:54
Partly Cloudy
81°F / 27°C 68°F / 20°C 66% 29.95 in
(1014 mb)
S 5.8 mph
(S 9 kph)
- 10SM
14:54
Mostly Cloudy
77°F / 25°C 68°F / 20°C 74% 29.95 in
(1014 mb)
Calm - 10SM
13:54
Mostly Cloudy
79°F / 26°C 70°F / 21°C 74% 29.98 in
(1015 mb)
Variable 3.5 mph
(Variable 6 kph)
- 10SM
12:54
Mostly Cloudy
75°F / 24°C 68°F / 20°C 78% 29.98 in
(1015 mb)
S 4.6 mph
(S 7 kph)
0.22 in
(5.59 mm)
10SM
12:45
Mostly Cloudy
Light Rain
73°F / 23°C 68°F / 20°C 83% 29.98 in
(1015 mb)
S 6.9 mph
(S 11 kph)
0.22 in
(5.59 mm)
10SM
12:40
Mostly Cloudy
Light Rain
73°F / 23°C 66°F / 19°C 78% 29.98 in
(1015 mb)
S 8.1 mph
(S 13 kph)
0.22 in
(5.59 mm)
7SM
12:33
Overcast
Heavy Rain
73°F / 23°C 66°F / 19°C 78% 29.98 in
(1015 mb)
S 9.2 mph
(S 15 kph)
0.16 in
(4.06 mm)
5SM
12:18
Overcast
Heavy Rain
75°F / 24°C 66°F / 19°C 74% 29.98 in
(1015 mb)
SW 5.8 mph
(SW 9 kph)
0.02 in
(0.51 mm)
3SM
12:12
Overcast
Light Rain
75°F / 24°C 66°F / 19°C 74% 29.98 in
(1015 mb)
SSE 6.9 mph
(SSE 11 kph)
- 5SM
12:01
Overcast
Light Rain
77°F / 25°C 66°F / 19°C 69% 29.98 in
(1015 mb)
S 6.9 mph
(S 11 kph)
0.00 in
(0.00 mm)
8SM
11:54
Overcast
77°F / 25°C 66°F / 19°C 69% 29.98 in
(1015 mb)
SSW 8.1 mph
(SSW 13 kph)
- 10SM
11:44
Overcast
79°F / 26°C 64°F / 18°C 61% 29.98 in
(1015 mb)
SW 8.1 mph
(SW 13 kph)
- 10SM
11:13
Overcast
79°F / 26°C 66°F / 19°C 65% 29.98 in
(1015 mb)
SSW 11.5 mph
(SSW 19 kph)
- 10SM
10:54
Overcast
77°F / 25°C 66°F / 19°C 69% 30.01 in
(1016 mb)
Variable 3.5 mph
(Variable 6 kph)
- 10SM
09:54
Mostly Cloudy
75°F / 24°C 66°F / 19°C 74% 30.01 in
(1016 mb)
Calm 0.00 in
(0.00 mm)
10SM
08:54
Overcast
Light Rain
72°F / 22°C 64°F / 18°C 78% 30.04 in
(1017 mb)
N 4.6 mph
(N 7 kph)
0.00 in
(0.00 mm)
10SM
07:54
Overcast
73°F / 23°C 63°F / 17°C 69% 30.01 in
(1016 mb)
SSE 5.8 mph
(SSE 9 kph)
- 10SM
06:54
Mostly Cloudy
70°F / 21°C 61°F / 16°C 73% 30.01 in
(1016 mb)
S 6.9 mph
(S 11 kph)
- 10SM
05:54
Mostly Cloudy
70°F / 21°C 61°F / 16°C 73% 30.01 in
(1016 mb)
S 3.5 mph
(S 6 kph)
- 10SM
04:54
Overcast
70°F / 21°C 61°F / 16°C 73% 30.01 in
(1016 mb)
S 4.6 mph
(S 7 kph)
- 10SM
03:54
Overcast
70°F / 21°C 61°F / 16°C 73% 30.01 in
(1016 mb)
SSE 4.6 mph
(SSE 7 kph)
- 10SM
02:54
Mostly Cloudy
70°F / 21°C 61°F / 16°C 73% 30.01 in
(1016 mb)
SW 3.5 mph
(SW 6 kph)
- 10SM
01:54
Mostly Cloudy
70°F / 21°C 59°F / 15°C 69% 30.01 in
(1016 mb)
SW 6.9 mph
(SW 11 kph)
- 10SM
00:54
Mostly Cloudy
70°F / 21°C 59°F / 15°C 69% 30.04 in
(1017 mb)
SSE 6.9 mph
(SSE 11 kph)
- 10SM
Time Weather Temperature Dewpoint Humidity Pressure Winds Precip Visibility


Weather for websites

WeatherForYou.com, LLC is not responsible for any damages or problems caused by this service. Current weather conditions are obtained from the closest station including government and personal stations which may have varying degrees of accuracy. Weather forecasts are derived from the NOAA NDFD. Like all things, this site belongs to Jesus Christ... He just trusts me to maintain it. If you have any questions or comments email webmaster@weatherforyou.com

Copyright © 2014, WeatherForYou.com LLC. All rights reserved.